Mount Shasta, CA

2:55 PM PDT on April 26, 2017 (GMT -0700)
Mount Shasta

Weather History for KMHS - January, 2014

Change the Weather History Date:

Monday, January 6, 2014

  Actual Average Record
Temperature  
Mean Temperature 37 °F 35 °F  
Max Temperature 48 °F 44 °F 68 °F (2015)
Min Temperature 26 °F 26 °F 3 °F (2017)
Degree Days  
Heating Degree Days 28 30  
Month to date heating degree days 148 180  
Since 1 July heating degree days 2323 2502  
Cooling Degree Days 0 0  
Month to date cooling degree days 0 0  
Year to date cooling degree days 0 0  
Moisture  
Dew Point 17 °F    
Average Humidity 46    
Maximum Humidity 76    
Minimum Humidity 23    
Precipitation  
Precipitation T in 0.24 in 2.13 in (1956)
Month to date precipitation T 1.41  
Year to date precipitation T 1.41  
Sea Level Pressure  
Sea Level Pressure 30.35 in    
Wind  
Wind Speed 2 mph (NNE)    
Max Wind Speed 7 mph    
Max Gust Speed 13 mph    
Visibility 8 miles    
Events      
T = Trace of Precipitation, MM = Missing Value Source: NWS Daily Summary

Daily Weather History Graph

Daily Weather History Graph

Search for Another Location

Airport or City:

Trip Planner

Search our weather history database for the weather conditions in past years. The results will help you decide how hot, cold, wet, or windy it might be!

Date:

Astronomy

Jan. 06, 2014 Rise Set
Actual Time 7:35 AM PST 4:55 PM PST
Civil Twilight 7:04 AM PST 5:26 PM PST
Nautical Twilight 6:29 AM PST 6:00 PM PST
Astronomical Twilight 5:56 AM PST 6:34 PM PST
Moon 10:49 AM PST (1/6) 11:39 PM PST (1/6)
Length of Visible Light 10h 22m
Length of Day
9h 20m
Waxing Crescent, 36% of the Moon is Illuminated
Jan 6
Waxing Crescent
Jan 7
First Quarter
Jan 15
Full
Jan 23
Last Quarter
Jan 30
New

Hourly Weather History & Observations

Time (PST) Temp. Windchill Dew Point Humidity Pressure Visibility Wind Dir Wind Speed Gust Speed Precip Events Conditions
12:56 AM 28.9 °F - 10.9 °F 47% 30.37 in 6.0 mi Calm Calm - N/A   Haze
1:56 AM 27.0 °F - 10.9 °F 51% 30.38 in 5.0 mi Calm Calm - N/A   Haze
2:56 AM 26.1 °F - 12.0 °F 55% 30.40 in 10.0 mi Calm Calm - N/A   Clear
3:56 AM 28.0 °F - 10.0 °F 47% 30.39 in 10.0 mi Calm Calm - N/A   Clear
4:56 AM 28.9 °F - 10.0 °F 45% 30.40 in 10.0 mi Calm Calm - N/A   Clear
5:56 AM 27.0 °F - 10.9 °F 51% 30.41 in 9.0 mi Calm Calm - N/A   Clear
6:56 AM 28.0 °F 22.8 °F 10.0 °F 47% 30.43 in 10.0 mi North 4.6 mph - N/A   Clear
7:56 AM 28.0 °F - 10.0 °F 47% 30.43 in 6.0 mi Calm Calm - N/A   Haze
8:56 AM 32.0 °F - 12.9 °F 45% 30.44 in 9.0 mi Calm Calm - N/A   Clear
9:56 AM 41.0 °F 39.0 °F 15.1 °F 35% 30.42 in 8.0 mi ENE 3.5 mph - N/A   Clear
10:56 AM 45.0 °F - 12.0 °F 26% 30.40 in 10.0 mi Calm Calm - N/A   Clear
11:56 AM 46.9 °F - 10.9 °F 23% 30.35 in 10.0 mi Calm Calm - N/A   Clear
12:56 PM 45.0 °F 41.8 °F 10.9 °F 25% 30.34 in 10.0 mi Variable 5.8 mph - N/A   Clear
1:56 PM 45.0 °F - 10.9 °F 25% 30.31 in 10.0 mi Calm Calm - N/A   Mostly Cloudy
2:56 PM 46.0 °F - 12.9 °F 26% 30.31 in 10.0 mi Calm Calm - N/A   Overcast
3:56 PM 45.0 °F - 14.0 °F 29% 30.30 in 10.0 mi Calm Calm - N/A   Overcast
4:56 PM 43.0 °F 38.8 °F 15.1 °F 32% 30.31 in 10.0 mi WNW 6.9 mph - N/A   Overcast
5:56 PM 42.1 °F 38.4 °F 23.0 °F 47% 30.32 in 9.0 mi NE 5.8 mph - 0.00 in   Overcast
6:56 PM 42.1 °F - 26.1 °F 53% 30.34 in 5.0 mi Calm Calm - N/A   Haze
7:56 PM 45.0 °F 41.2 °F 32.0 °F 60% 30.31 in 10.0 mi ENE 6.9 mph - 0.00 in   Overcast
8:56 PM 39.9 °F - 30.9 °F 70% 30.32 in 7.0 mi Calm Calm - N/A   Mostly Cloudy
9:56 PM 37.0 °F - 30.0 °F 76% 30.28 in 7.0 mi Calm Calm - N/A   Mostly Cloudy
10:56 PM 37.0 °F - 28.9 °F 73% 30.28 in 8.0 mi Calm Calm - N/A   Mostly Cloudy
11:56 PM 35.1 °F 32.2 °F 28.0 °F 76% 30.26 in 5.0 mi NE 3.5 mph - N/A   Haze